Flag for South Africa Weather past 2 weeks in Stellenbosch, South Africa

Now
52 °F

Clear.


Feels Like: 49 °F
Forecast: 38 / 74 °F
Wind: 8 mph from Southwest

Location: Cape Town International Airport

Current Time: Aug 1, 2015 at 10:17:15 PM

Latest Report: Aug 1, 2015 at 9:00 PM


Visibility: 10 mi

Pressure: 30.24 "Hg

Humidity: 94%

Dew point: 50 °F

Location of StellenboschLocation

Historic Weather in Stellenbosch — Graph

°F

Stellenbosch temperature yesterday

Maximum temperature yesterday: 57 °F (at 1:00 PM)
Minimum temperature yesterday: 41 °F (at 2:00 AM)
Average temperature yesterday: 48 °F

Past Weeks' High & Low Weather Summary

 TemperatureHumidityPressure
High64 °F (Jul 22, 12:00 PM)100% (Jul 17, 9:00 PM)30.45 "Hg (Jul 17, 9:00 PM)
Low39 °F (Jul 26, 8:00 AM)32% (Aug 1, 2:00 PM)29.86 "Hg (Jul 17, 8:00 PM)
Average53 °F81%30.20 "Hg
* Reported Jul 17 8:00 PM — Aug 1 8:00 PM, Stellenbosch, Weather by CustomWeather, © 2015

Note: Actual official high and low records may vary slightly from our data, if they occured in-between our weather recording intervals... More about our weather records

Advertising

Stellenbosch weather history for previous 24 hours

 ConditionsComfort  
Time TempWeatherWind HumidityBarometerVisibility
8:00 PM
Sat, Aug 1
52 °FClear.7 mph94%30.27 "Hg10 mi
7:00 PM54 °FClear.8 mph88%30.27 "Hg10 mi
6:00 PM54 °FClear.9 mph82%30.24 "Hg10 mi
5:00 PM57 °FSunny.12 mph72%30.27 "Hg10 mi
4:00 PM59 °FSunny.10 mph63%30.27 "Hg10 mi
3:00 PM61 °FPassing clouds.9 mph59%30.27 "HgN/A
2:00 PM64 °FSunny.5 mph32%30.30 "Hg10 mi
1:00 PM63 °FPassing clouds.3 mph45%30.33 "HgN/A
12:00 PM59 °FPassing clouds.3 mph55%30.33 "HgN/A
11:00 AM57 °FSunny.2 mph63%30.36 "Hg10 mi
10:00 AM54 °FSunny.2 mph72%30.36 "Hg10 mi
9:00 AM46 °FSunny.2 mph93%30.36 "Hg10 mi
8:00 AM39 °FSunny.5 mph93%30.36 "Hg10 mi
7:00 AM41 °FSunny.13 mph93%30.36 "Hg10 mi
6:00 AM39 °FClear.6 mph93%30.33 "Hg10 mi
5:00 AM43 °FClear.7 mph87%30.33 "Hg10 mi
4:00 AM43 °FClear.7 mph87%30.36 "Hg10 mi
3:00 AM43 °FClear.7 mph87%30.36 "Hg10 mi
2:00 AM43 °FClear.2 mph87%30.39 "Hg10 mi
1:00 AM45 °FClear.3 mph81%30.39 "Hg10 mi
12:00 AM45 °FClear.2 mph87%30.39 "Hg10 mi
11:00 PM
Fri, Jul 31
45 °FClear.1 mph87%30.42 "Hg10 mi
10:00 PM45 °FClear.6 mph81%30.42 "Hg10 mi
Weather by CustomWeather, © 2015

See weather overviewHow to use our weather pages